Regional Weather Roundup
Issued by NWS

Home | Current Version | Previous Version | Graphics & Text | Print | Product List | Glossary On
Versions: 1 2 3 4 5 6 7 8 9 10 11 12 13 14 15 16 17 18 19 20 21 22 23 24 25 26 27 28 29 30 31 32 33 34 35 36 37 38 39 40 41 42 43 44 45 46 47 48 49 50
000
ASUS43 KLMK 240602
RWRKY
KENTUCKY REGIONAL WEATHER ROUNDUP
NATIONAL WEATHER SERVICE LOUISVILLE KY
200 AM EDT FRI OCT 24 2014

NOTE "FAIR" INDICATES FEW OR NO CLOUDS BELOW 12,000 FEET
WITH NO SIGNIFICANT WEATHER AND/OR OBSTRUCTIONS TO VISIBILITY.

KYZ001>023-026-027-061>063-070>075-240700-
WESTERN AND SOUTH CENTRAL KENTUCKY

CITY           SKY/WX    TMP DP  RH WIND       PRES   REMARKS
PADUCAH        CLEAR     42  41  96 CALM      30.11S FOG
HENDERSON      PTCLDY   N/A N/A N/A CALM      30.12S
OWENSBORO      MOCLDY    47  45  93 CALM      30.12S
HOPKINSVILLE   CLOUDY    49  47  95 NE2       30.11R
BOWLING GREEN  CLOUDY    48  45  89 SW3       30.12S
GLASGOW        NOT AVBL
$$

KYZ024-025-028>034-038-045-046-053-240700-
NORTH CENTRAL KENTUCKY

CITY           SKY/WX    TMP DP  RH WIND       PRES   REMARKS
LOUISVILLE/SDF MOCLDY    48  44  86 CALM      30.12S
LOUISVILLE/LOU MOCLDY    46  42  86 CALM      30.12F
FORT KNOX      MOCLDY    41  40  96 W1        30.10F
$$

KYZ035>037-039>044-047>052-055>060-089>105-240700-
NORTHEAST KENTUCKY

CITY           SKY/WX    TMP DP  RH WIND       PRES   REMARKS
LEXINGTON      MOCLDY    43  39  86 CALM      30.12R
COVINGTON      CLOUDY    46  41  82 CALM      30.11S
FRANKFORT      PTCLDY    42  39  89 CALM      30.11R
$$

KYZ054-064>069-076>088-106>120-240700-
SOUTHEAST KENTUCKY

CITY           SKY/WX    TMP DP  RH WIND       PRES   REMARKS
JACKSON        CLOUDY    46  40  79 CALM      30.11F
LONDON         MOCLDY    43  40  89 CALM      30.12R
SOMERSET       MOCLDY    41  41 100 CALM      30.13S
MIDDLESBORO    MOCLDY    41  41  99 CALM      30.14S
MONTICELLO     CLOUDY    42  41  97 CALM      30.13F FOG
$$




USA.gov is the U.S. government's official web portal to all federal, state and local government web resources and services.